Date String (YYYY-MM-DD hh:mm:ss) UTC,Instrument flags,absolute air pressure of the measurement (hPa),sample flow rate (lpm),inlet stack bypass flow (lpm),air temperature of the measurement (°C),ambient temperature measured by the external sensor (°C),aerosol sample conditioner tube jacket temperature (°C),OPC LED temperature (°C),internal box temperature (°C),relative humidity of the measurement (%),span deviation,mass concentration of particles derived from Lorenz-Mie calculation of OPC scattering (μg/m³),mass concentration of particles derived from Lorenz-Mie calculation of OPC scattering (μg/m³),mass concentration of particles derived from Lorenz-Mie calculation of OPC scattering (μg/m³)
DateTimeUTC,F1_M11,P_M11,Q1_M11,Q2_M11,T1_M11,T2_M11,T3_M11,T4_M11,T5_M11,U1_M11,ZSPAN_M11,X0_M11,X2_M11,X1_M11
2024-05-24 15:00:00,SystemResetWarning,0826.7,5.00,000.00,024.9,024.1,000.0,033.1,026.6,013.9,0000.0,0013.76,0002.45,0001.03
2024-05-24 15:01:00,SystemResetWarning,0826.6,4.99,000.00,024.9,024.1,000.0,033.1,026.7,013.5,0000.0,0013.04,0002.40,0001.03
2024-05-24 15:02:00,SystemResetWarning,0826.6,5.00,000.00,024.9,024.2,000.0,033.1,026.7,013.2,0000.0,0012.17,0002.48,0001.03
2024-05-24 15:03:00,SystemResetWarning,0826.5,5.00,000.00,024.9,024.2,000.0,033.1,026.7,013.2,0000.0,0012.66,0002.54,0001.03
2024-05-24 15:04:00,SystemResetWarning,0826.5,5.00,000.00,024.9,024.2,000.0,033.1,026.7,013.3,0000.0,0012.78,0002.60,0001.04
2024-05-24 15:05:00,SystemResetWarning,0826.6,5.00,000.00,024.9,024.2,000.0,033.1,026.7,013.1,0000.0,0013.84,0002.73,0001.05
2024-05-24 15:06:00,SystemResetWarning,0826.6,5.01,000.00,024.9,024.2,000.0,033.1,026.7,013.6,0000.0,0014.60,0002.85,0001.07
2024-05-24 15:07:00,SystemResetWarning,0826.6,5.00,000.00,024.9,024.2,000.0,033.1,026.7,013.6,0000.0,0013.78,0002.83,0001.08
2024-05-24 15:08:00,SystemResetWarning,0826.6,5.00,000.00,024.9,024.2,000.0,033.2,026.7,014.3,0000.0,0014.25,0002.80,0001.08
2024-05-24 15:09:00,SystemResetWarning,0826.6,5.00,000.00,024.9,024.2,000.0,033.2,026.7,013.2,0000.0,0014.32,0002.83,0001.09
2024-05-24 15:10:00,SystemResetWarning,0826.6,4.99,000.00,024.9,024.2,000.0,033.2,026.7,013.5,0000.0,0013.43,0002.90,0001.09
2024-05-24 15:11:00,SystemResetWarning,0826.6,5.00,000.00,025.0,024.2,000.0,033.2,026.7,013.3,0000.0,0013.40,0002.93,0001.11
2024-05-24 15:12:00,SystemResetWarning,0826.6,5.01,000.00,025.0,024.2,000.0,033.2,026.8,013.3,0000.0,0014.60,0002.97,0001.13
2024-05-24 15:13:00,SystemResetWarning,0826.6,5.00,000.00,025.0,024.2,000.0,033.2,026.8,014.3,0000.0,0014.20,0002.93,0001.14
2024-05-24 15:14:00,SystemResetWarning,0826.6,4.98,000.00,025.0,024.2,000.0,033.2,026.8,014.4,0000.0,0013.84,0002.92,0001.14
2024-05-24 15:15:00,SystemResetWarning,0826.6,5.00,000.00,025.0,024.2,000.0,033.2,026.8,013.1,0000.0,0013.39,0002.93,0001.15
2024-05-24 15:16:00,SystemResetWarning,0826.6,5.01,000.00,025.0,024.3,000.0,033.2,026.8,013.3,0000.0,0013.06,0002.83,0001.16
2024-05-24 15:17:00,SystemResetWarning,0826.6,5.01,000.00,025.0,024.3,000.0,033.2,026.8,013.3,0000.0,0011.95,0002.74,0001.16
2024-05-24 15:18:00,SystemResetWarning,0826.6,4.99,000.00,025.0,024.3,000.0,033.2,026.8,013.5,0000.0,0011.54,0002.71,0001.15
2024-05-24 15:19:00,SystemResetWarning,0826.6,4.98,000.00,025.0,024.3,000.0,033.2,026.8,013.3,0000.0,0011.23,0002.68,0001.15
2024-05-24 15:20:00,SystemResetWarning,0826.6,5.01,000.00,025.0,024.3,000.0,033.3,026.8,012.9,0000.0,0010.94,0002.66,0001.16
2024-05-24 15:21:00,SystemResetWarning,0826.6,5.01,000.00,025.0,024.3,000.0,033.2,026.8,013.0,0000.0,0011.23,0002.58,0001.17
2024-05-24 15:22:00,SystemResetWarning,0826.6,5.00,000.00,025.0,024.3,000.0,033.2,026.8,012.8,0000.0,0011.03,0002.50,0001.18
2024-05-24 15:23:00,SystemResetWarning,0826.8,4.99,000.00,025.0,024.3,000.0,033.3,026.8,013.1,0000.0,0010.51,0002.57,0001.18
2024-05-24 15:24:00,SystemResetWarning,0826.8,5.00,000.00,025.1,024.3,000.0,033.3,026.8,013.1,0000.0,0010.36,0002.54,0001.19
2024-05-24 15:25:00,SystemResetWarning,0826.8,5.00,000.00,025.1,024.3,000.0,033.3,026.8,013.2,0000.0,0010.29,0002.55,0001.20
2024-05-24 15:26:00,SystemResetWarning,0826.8,5.00,000.00,025.1,024.4,000.0,033.3,026.8,013.8,0000.0,0009.81,0002.50,0001.20
2024-05-24 15:27:00,SystemResetWarning,0826.6,5.00,000.00,025.1,024.4,000.0,033.3,026.8,013.2,0000.0,0009.83,0002.55,0001.21
2024-05-24 15:28:00,SystemResetWarning,0826.6,5.00,000.00,025.1,024.4,000.0,033.3,026.9,013.0,0000.0,0011.17,0002.59,0001.21
2024-05-24 15:29:00,SystemResetWarning,0826.6,5.00,000.00,025.1,024.4,000.0,033.3,026.9,012.7,0000.0,0011.54,0002.59,0001.22
2024-05-24 15:30:00,SystemResetWarning,0826.6,5.01,000.00,025.1,024.4,000.0,033.3,026.9,012.6,0000.0,0011.71,0002.61,0001.24
2024-05-24 15:31:00,SystemResetWarning,0826.6,5.00,000.00,025.1,024.4,000.0,033.3,026.9,013.1,0000.0,0012.01,0002.59,0001.24
2024-05-24 15:32:00,SystemResetWarning,0826.6,5.00,000.00,025.1,024.4,000.0,033.3,026.9,012.5,0000.0,0011.59,0002.54,0001.24
2024-05-24 15:33:00,SystemResetWarning,0826.6,4.99,000.00,025.1,024.4,000.0,033.3,026.9,012.5,0000.0,0012.01,0002.55,0001.24
2024-05-24 15:34:00,SystemResetWarning,0826.6,4.99,000.00,025.1,024.4,000.0,033.3,026.9,012.8,0000.0,0011.51,0002.56,0001.23
2024-05-24 15:35:00,SystemResetWarning,0826.6,4.99,000.00,025.1,024.4,000.0,033.4,026.9,012.6,0000.0,0011.27,0002.58,0001.23
2024-05-24 15:36:00,SystemResetWarning,0826.6,5.01,000.00,025.1,024.4,000.0,033.4,026.9,012.4,0000.0,0012.10,0002.62,0001.24
2024-05-24 15:37:00,SystemResetWarning,0826.6,5.00,000.00,025.1,024.4,000.0,033.4,026.9,012.8,0000.0,0012.56,0002.63,0001.24
2024-05-24 15:38:00,SystemResetWarning,0826.6,4.99,000.00,025.1,024.4,000.0,033.4,026.9,012.8,0000.0,0012.47,0002.61,0001.25
2024-05-24 15:39:00,SystemResetWarning,0826.6,5.00,000.00,025.2,024.4,000.0,033.4,026.9,013.1,0000.0,0011.34,0002.55,0001.26
2024-05-24 15:40:00,SystemResetWarning,0826.7,5.01,000.00,025.2,024.5,000.0,033.4,026.9,013.1,0000.0,0010.85,0002.54,0001.27
2024-05-24 15:41:00,SystemResetWarning,0826.7,5.01,000.00,025.2,024.5,000.0,033.4,027.0,013.1,0000.0,0010.15,0002.48,0001.26
2024-05-24 15:42:00,SystemResetWarning,0826.8,4.99,000.00,025.2,024.5,000.0,033.4,027.0,013.1,0000.0,0010.56,0002.46,0001.26
2024-05-24 15:43:00,SystemResetWarning,0826.8,4.99,000.00,025.2,024.5,000.0,033.4,027.0,012.9,0000.0,0010.92,0002.53,0001.27
2024-05-24 15:44:00,SystemResetWarning,0826.8,5.01,000.00,025.2,024.5,000.0,033.4,027.0,012.7,0000.0,0010.73,0002.56,0001.29
2024-05-24 15:45:00,SystemResetWarning,0826.8,5.01,000.00,025.2,024.5,000.0,033.4,027.0,012.6,0000.0,0010.29,0002.52,0001.31
2024-05-24 15:46:00,SystemResetWarning,0826.7,5.01,000.00,025.2,024.5,000.0,033.4,027.0,012.8,0000.0,0011.23,0002.57,0001.33
2024-05-24 15:47:00,SystemResetWarning,0826.6,5.00,000.00,025.2,024.5,000.0,033.5,027.0,012.7,0000.0,0011.08,0002.56,0001.34
2024-05-24 15:48:00,SystemResetWarning,0826.6,4.98,000.00,025.2,024.5,000.0,033.5,027.0,013.1,0000.0,0010.77,0002.52,0001.34
2024-05-24 15:49:00,SystemResetWarning,0826.6,5.00,000.00,025.2,024.5,000.0,033.5,027.0,013.6,0000.0,0010.91,0002.50,0001.32
2024-05-24 15:50:00,SystemResetWarning,0826.6,5.00,000.00,025.2,024.5,000.0,033.5,027.0,014.0,0000.0,0011.10,0002.47,0001.30
2024-05-24 15:51:00,SystemResetWarning,0826.6,5.00,000.00,025.2,024.5,000.0,033.5,027.0,013.1,0000.0,0010.73,0002.49,0001.29
2024-05-24 15:52:00,SystemResetWarning,0826.6,5.00,000.00,025.2,024.5,000.0,033.5,027.0,013.2,0000.0,0011.11,0002.58,0001.29
2024-05-24 15:53:00,SystemResetWarning,0826.6,5.01,000.00,025.2,024.5,000.0,033.5,027.0,013.5,0000.0,0011.00,0002.65,0001.29
2024-05-24 15:54:00,SystemResetWarning,0826.6,5.00,000.00,025.2,024.5,000.0,033.5,027.0,013.5,0000.0,0010.30,0002.58,0001.26
2024-05-24 15:55:00,SystemResetWarning,0826.6,5.00,000.00,025.3,024.5,000.0,033.6,027.0,012.4,0000.0,0010.59,0002.59,0001.24
2024-05-24 15:56:00,SystemResetWarning,0826.6,5.00,000.00,025.3,024.6,000.0,033.6,027.1,013.6,0000.0,0012.25,0002.56,0001.22
2024-05-24 15:57:00,SystemResetWarning,0826.6,5.00,000.00,025.3,024.6,000.0,033.6,027.1,012.8,0000.0,0011.77,0002.48,0001.20
2024-05-24 15:58:00,SystemResetWarning,0826.6,5.00,000.00,025.3,024.6,000.0,033.6,027.1,012.9,0000.0,0012.54,0002.55,0001.18
2024-05-24 15:59:00,SystemResetWarning,0826.6,4.99,000.00,025.3,024.6,000.0,033.6,027.1,013.2,0000.0,0012.69,0002.58,0001.19
